PD1VW-10 Weather Reports


Display with metric or nautical units.
time (UTC)temp
F
wind
direction
speed
MPH
gust
MPH
rain 1hr
in
rain 24hr
in
rain mn
in
humidity
%
barometer
mb
20260508181031 63 120 1.0 1.0 0.00 0.00 0.00 52 1019.7
20260508180029 64 0.0 0.0 0.00 0.00 0.00 52 1019.8
20260508175026 64 168 2.0 3.0 0.00 0.00 0.00 48 1019.7
20260508174023 65 141 1.0 2.0 0.00 0.00 0.00 49 1019.6
20260508173020 65 148 0.0 2.0 0.00 0.00 0.00 47 1019.6
20260508172017 64 158 2.0 3.0 0.00 0.00 0.00 48 1019.5
20260508171045 65 139 1.0 1.0 0.00 0.00 0.00 48 1019.6
20260508165039 64 126 0.0 1.0 0.00 0.00 0.00 49 1019.6
20260508164036 64 142 2.0 2.0 0.00 0.00 0.00 49 1019.4
20260508163033 63 160 2.0 2.0 0.00 0.00 0.00 50 1019.5
20260508162030 63 157 2.0 3.0 0.00 0.00 0.00 49 1019.6
20260508161027 63 144 3.0 4.0 0.00 0.00 0.00 48 1019.5
20260508160025 65 89 1.0 3.0 0.00 0.00 0.00 42 1019.4
20260508155022 66 116 1.0 1.0 0.00 0.00 0.00 48 1019.6
20260508154019 66 112 2.0 4.0 0.00 0.00 0.00 48 1019.5
20260508153056 68 75 1.0 3.0 0.00 0.00 0.00 41 1019.6
20260508152044 67 152 1.0 1.0 0.00 0.00 0.00 43 1019.5
20260508151041 67 149 2.0 4.0 0.00 0.00 0.00 46 1019.5
20260508150038 67 118 4.0 7.0 0.00 0.00 0.00 46 1019.6
20260508145115 64 74 2.0 4.0 0.00 0.00 0.00 46 1019.7
20260508144032 64 169 2.0 7.0 0.00 0.00 0.00 48 1019.8
20260508143029 64 138 1.0 2.0 0.00 0.00 0.00 49 1019.8
20260508142027 64 175 4.0 4.0 0.00 0.00 0.00 50 1019.9
20260508141024 64 91 2.0 3.0 0.00 0.00 0.00 51 1019.9
20260508140021 65 150 4.0 6.0 0.00 0.00 0.00 51 1020.0
20260508135038 66 75 2.0 2.0 0.00 0.00 0.00 47 1020.0
20260508134016 66 132 3.0 3.0 0.00 0.00 0.00 49 1020.1
20260508133103 63 144 2.0 4.0 0.00 0.00 0.00 53 1020.1
20260508132040 64 168 3.0 8.0 0.00 0.00 0.00 53 1020.1
20260508131118 63 58 4.0 6.0 0.00 0.00 0.00 55 1020.2
20260508130035 64 122 3.0 6.0 0.00 0.00 0.00 54 1020.2
20260508125032 63 104 2.0 4.0 0.00 0.00 0.00 55 1020.4
20260508124029 62 137 3.0 7.0 0.00 0.00 0.00 56 1020.2
20260508123027 63 153 2.0 2.0 0.00 0.00 0.00 56 1020.2
20260508122024 64 147 3.0 7.0 0.00 0.00 0.00 56 1020.1
20260508121021 62 141 3.0 8.0 0.00 0.00 0.00 58 1020.2
20260508120018 62 132 2.0 4.0 0.00 0.00 0.00 57 1020.3
20260508115015 63 155 4.0 10.0 0.00 0.00 0.00 57 1020.3
20260508114043 63 126 1.0 2.0 0.00 0.00 0.00 58 1020.4
20260508113040 63 173 4.0 6.0 0.00 0.00 0.00 58 1020.4
20260508112037 62 132 3.0 4.0 0.00 0.00 0.00 58 1020.2
20260508111035 62 146 2.0 4.0 0.00 0.00 0.00 60 1020.2
20260508110032 62 142 3.0 6.0 0.00 0.00 0.00 60 1020.3
20260508105029 61 109 5.0 10.0 0.00 0.00 0.00 62 1020.4
20260508104026 61 125 3.0 6.0 0.00 0.00 0.00 63 1020.5
20260508103023 61 78 4.0 7.0 0.00 0.00 0.00 63 1020.6
20260508102041 59 157 3.0 6.0 0.00 0.00 0.00 65 1020.6
20260508101038 59 122 2.0 2.0 0.00 0.00 0.00 66 1020.6
20260508100015 59 145 3.0 4.0 0.00 0.00 0.00 67 1020.6
20260508095103 58 136 4.0 7.0 0.00 0.00 0.00 69 1020.6
20260508094040 58 170 4.0 7.0 0.00 0.00 0.00 70 1020.6
20260508093037 58 86 2.0 4.0 0.00 0.00 0.00 69 1020.8
20260508092034 57 132 3.0 6.0 0.00 0.00 0.00 70 1020.8
20260508091032 57 93 3.0 7.0 0.00 0.00 0.00 71 1020.7
20260508090029 56 149 2.0 3.0 0.00 0.00 0.00 72 1020.6
20260508085046 57 140 2.0 6.0 0.00 0.00 0.00 72 1020.6
20260508084023 56 161 4.0 7.0 0.00 0.00 0.00 73 1020.6
20260508083020 55 102 7.0 10.0 0.00 0.00 0.00 74 1020.7
20260508082017 55 148 3.0 8.0 0.00 0.00 0.00 75 1020.7
20260508081045 54 152 3.0 4.0 0.00 0.00 0.00 77 1021.0
20260508080041 55 137 3.0 6.0 0.00 0.00 0.00 75 1020.9
20260508075039 54 89 4.0 6.0 0.00 0.00 0.00 76 1020.8
20260508074056 54 81 3.0 4.0 0.00 0.00 0.00 76 1020.8
20260508073033 54 93 3.0 4.0 0.00 0.00 0.00 77 1020.8
20260508072030 53 151 2.0 4.0 0.00 0.00 0.00 78 1020.5
20260508071027 53 66 1.0 2.0 0.00 0.00 0.00 79 1020.8
20260508070025 52 169 3.0 4.0 0.00 0.00 0.00 80 1020.6
20260508065022 52 125 5.0 7.0 0.00 0.00 0.00 82 1020.7
20260508064019 52 135 4.0 7.0 0.00 0.00 0.00 82 1020.5
20260508063016 51 109 5.0 8.0 0.00 0.00 0.00 82 1020.5
20260508062043 52 107 3.0 7.0 0.00 0.00 0.00 83 1020.3
20260508061100 51 136 4.0 7.0 0.00 0.00 0.00 84 1020.2
20260508060037 51 110 1.0 3.0 0.00 0.00 0.00 85 1020.4
20260508055034 51 137 3.0 6.0 0.00 0.00 0.00 85 1020.3
20260508054031 51 159 2.0 3.0 0.00 0.00 0.00 85 1020.2
20260508053029 51 135 5.0 7.0 0.00 0.00 0.00 85 1020.3
20260508052046 51 159 3.0 3.0 0.00 0.00 0.00 85 1020.1
20260508051023 50 221 6.0 9.0 0.00 0.00 0.00 84 1020.0
20260508050021 51 266 3.0 7.0 0.00 0.00 0.00 85 1019.9
20260508045038 50 266 2.0 4.0 0.00 0.00 0.00 85 1019.7
20260508044015 50 266 2.0 4.0 0.00 0.00 0.00 86 1019.7
20260508043042 50 266 2.0 2.0 0.00 0.00 0.00 86 1019.6
20260508042040 50 266 2.0 4.0 0.00 0.00 0.00 86 1019.7
20260508041036 50 266 3.0 3.0 0.00 0.00 0.00 85 1019.8
20260508040034 50 266 2.0 4.0 0.00 0.00 0.00 85 1019.6
20260508035031 51 266 2.0 3.0 0.00 0.00 0.00 85 1019.4
20260508034028 51 266 3.0 4.0 0.00 0.00 0.00 85 1019.3
20260508033025 51 266 1.0 2.0 0.00 0.00 0.00 83 1019.5
20260508032023 51 266 4.0 4.0 0.00 0.00 0.00 83 1019.5
20260508031020 51 266 4.0 8.0 0.00 0.00 0.00 82 1019.6
20260508030037 51 266 4.0 8.0 0.00 0.00 0.00 83 1019.5
20260508025044 51 266 3.0 4.0 0.00 0.00 0.00 84 1019.4
20260508024101 51 266 2.0 3.0 0.00 0.00 0.00 84 1019.4
20260508023038 51 266 2.0 3.0 0.00 0.00 0.00 84 1019.4
20260508022035 51 266 2.0 3.0 0.00 0.00 0.00 84 1019.4
20260508021032 51 266 2.0 4.0 0.00 0.00 0.00 84 1019.5
20260508020029 51 266 3.0 6.0 0.00 0.00 0.00 84 1019.5
20260508015026 51 266 2.0 4.0 0.00 0.00 0.00 83 1019.5
20260508014023 51 266 3.0 4.0 0.00 0.00 0.00 83 1019.3
20260508013020 51 266 1.0 2.0 0.00 0.00 0.00 83 1019.4
20260508012018 51 266 0.0 1.0 0.00 0.00 0.00 83 1019.5
20260508011045 51 266 2.0 2.0 0.00 0.00 0.00 83 1019.5
20260508010043 52 266 1.0 1.0 0.00 0.00 0.00 83 1019.5
20260508005039 52 266 2.0 4.0 0.00 0.00 0.00 82 1019.4
20260508004056 51 266 1.0 3.0 0.00 0.00 0.00 82 1019.4
20260508003034 51 266 1.0 2.0 0.00 0.00 0.00 81 1019.4
20260508002031 51 266 1.0 2.0 0.00 0.00 0.00 81 1019.4
20260508001108 51 266 1.0 2.0 0.00 0.00 0.00 80 1019.4
20260508000045 51 266 1.0 2.0 0.00 0.00 0.00 80 1019.5
20260507235022 52 266 1.0 2.0 0.00 0.00 0.00 79 1019.4
20260507234019 52 266 1.0 2.0 0.00 0.00 0.00 79 1019.5
20260507233016 52 266 3.0 6.0 0.00 0.00 0.00 79 1019.4
20260507232104 50 266 1.0 1.0 0.00 0.00 0.00 85 1019.6
20260507231041 48 266 1.0 3.0 0.00 0.00 0.00 91 1019.4
20260507230038 48 266 2.0 2.0 0.00 0.00 0.00 92 1019.6
20260507225115 48 266 2.0 3.0 0.00 0.00 0.00 92 1019.4
20260507224053 48 266 2.0 2.0 0.00 0.00 0.00 92 1019.4
20260507223030 48 266 1.0 2.0 0.00 0.00 0.00 91 1019.2
20260507222027 47 266 1.0 2.0 0.00 0.00 0.00 91 1019.3
20260507221024 47 266 2.0 2.0 0.00 0.00 0.00 91 1019.4
20260507220021 48 266 2.0 3.0 0.00 0.00 0.00 90 1019.4
20260507215018 48 266 2.0 3.0 0.00 0.00 0.00 89 1019.5
20260507214015 48 266 2.0 2.0 0.00 0.00 0.00 88 1019.4
20260507213043 49 266 2.0 3.0 0.00 0.00 0.00 88 1019.3
20260507212040 49 266 3.0 4.0 0.00 0.00 0.00 87 1019.4
20260507211037 50 266 2.0 3.0 0.00 0.00 0.00 86 1019.4
20260507210054 50 266 3.0 4.0 0.00 0.00 0.00 86 1019.3
20260507205031 50 266 3.0 4.0 0.00 0.00 0.00 87 1019.3
20260507204029 50 266 3.0 3.0 0.00 0.00 0.00 86 1019.2
20260507203026 50 266 3.0 3.0 0.00 0.00 0.00 85 1019.2
20260507202023 51 266 3.0 4.0 0.00 0.00 0.00 84 1019.2
20260507201020 51 266 2.0 3.0 0.00 0.00 0.00 82 1019.2
20260507200017 51 266 3.0 4.0 0.00 0.00 0.00 81 1019.0
20260507195044 51 266 3.0 4.0 0.00 0.00 0.00 79 1018.9
20260507194041 51 266 3.0 3.0 0.00 0.00 0.00 78 1018.8
20260507193039 51 266 2.0 2.0 0.00 0.00 0.00 76 1018.8
20260507192116 52 266 3.0 4.0 0.00 0.00 0.00 75 1018.6
20260507191033 52 267 4.0 7.0 0.00 0.00 0.00 73 1018.7
20260507190050 53 272 4.0 4.0 0.00 0.00 0.00 72 1018.7
20260507185027 55 291 5.0 8.0 0.00 0.00 0.00 71 1018.4
20260507184024 55 21 4.0 6.0 0.00 0.00 0.00 69 1018.5
20260507183022 56 59 7.0 10.0 0.00 0.00 0.00 67 1018.3
20260507182019 57 47 6.0 8.0 0.00 0.00 0.00 67 1018.4